Weather History for NW Arkansas Airport, AR

Change the Weather History Date:

Friday, July 26, 2013

  Actual Average Record
Temperature  
Mean Temperature 70 °F -  
Max Temperature 73 °F - - ()
Min Temperature 64 °F - - ()
Cooling Degree Days 4    
Growing Degree Days 20 (Base 50)    
Moisture  
Dew Point 69 °F    
Average Humidity 94    
Maximum Humidity 100    
Minimum Humidity 84    
Precipitation  
Precipitation 0.65 in - - ()
Sea Level Pressure  
Sea Level Pressure 30.03 in    
Wind  
Wind Speed 4 mph (SE)    
Max Wind Speed 13 mph    
Max Gust Speed -    
Visibility 8 miles    
Events Rain    
T = Trace of Precipitation, MM = Missing Value Source: NWS Daily Summary

Daily Weather History Graph

Daily Weather History Graph

Search for Another Location

Airport:

Trip Planner

Search our weather history database for the weather conditions in past years. The results will help you decide how hot, cold, wet, or windy it might be!

Date:

Astronomy

Jul. 26, 2013 Rise Set
Actual Time 6:19 AM CDT 8:27 PM CDT
Civil Twilight 5:50 AM CDT 8:56 PM CDT
Nautical Twilight 5:15 AM CDT 9:31 PM CDT
Astronomical Twilight 4:37 AM CDT 10:09 PM CDT
Moon 10:53 PM CDT (7/26) 10:46 AM CDT (7/26)
Length of Visible Light 15h 05m
Length of Day
14h 08m
Waning Gibbous, 80% of the Moon is Illuminated
Jul 26
Waning Gibbous
Jul 29
Last Quarter
Aug 6
New
Aug 14
First Quarter
Aug 20
Full

Hourly Weather History & Observations

Time (CDT) Temp. Dew Point Humidity Pressure Visibility Wind Dir Wind Speed Gust Speed Precip Events Conditions
12:53 AM 72.0 °F 70.0 °F 93% 30.02 in 9.0 mi Calm Calm - N/A   Clear
1:53 AM 73.0 °F 69.1 °F 87% 30.02 in 10.0 mi ESE 4.6 mph - N/A   Clear
2:53 AM 73.0 °F 68.0 °F 84% 30.00 in 10.0 mi SSE 4.6 mph - N/A   Partly Cloudy
3:53 AM 71.1 °F 68.0 °F 90% 29.99 in 10.0 mi South 3.5 mph - N/A   Mostly Cloudy
4:53 AM 72.0 °F 68.0 °F 87% 29.99 in 10.0 mi Calm Calm - N/A   Overcast
5:53 AM 71.1 °F 68.0 °F 90% 30.00 in 10.0 mi Calm Calm - 0.00 in   Overcast
6:53 AM 71.1 °F 69.1 °F 93% 30.00 in 8.0 mi South 4.6 mph - 0.01 in Rain Light Rain
7:53 AM 70.0 °F 69.1 °F 97% 30.01 in 5.0 mi Calm Calm - 0.06 in Rain Light Rain
8:53 AM 70.0 °F 69.1 °F 97% 30.03 in 5.0 mi SSW 3.5 mph - 0.04 in Rain Light Rain
9:53 AM 71.1 °F 70.0 °F 96% 30.02 in 5.0 mi South 5.8 mph - 0.04 in Rain Light Rain
10:38 AM 71.6 °F 69.8 °F 94% 30.07 in 2.0 mi South 9.2 mph - 0.10 in Rain Light Rain
10:44 AM 69.8 °F 68.0 °F 94% 30.07 in 0.8 mi South 12.7 mph - 0.17 in Rain Heavy Rain
10:53 AM 69.1 °F 69.1 °F 100% 30.03 in 1.8 mi SSE 9.2 mph - 0.23 in Rain Heavy Rain
11:00 AM 69.8 °F 69.8 °F 100% 30.06 in 2.0 mi SSE 8.1 mph - 0.01 in Rain Light Rain
11:09 AM 69.8 °F 69.8 °F 100% 30.07 in 4.0 mi South 6.9 mph - 0.01 in Rain Light Rain
11:44 AM 69.8 °F 69.8 °F 100% 30.07 in 6.0 mi SSE 6.9 mph - 0.02 in Rain Light Rain
11:53 AM 71.1 °F 70.0 °F 96% 30.03 in 6.0 mi SSE 6.9 mph - 0.02 in Rain Light Rain
12:09 PM 71.6 °F 69.8 °F 94% 30.07 in 8.0 mi South 8.1 mph - 0.00 in Rain Light Rain
12:16 PM 71.6 °F 69.8 °F 94% 30.07 in 7.0 mi SSE 8.1 mph - 0.01 in Rain Light Rain
12:53 PM 70.0 °F 69.1 °F 97% 30.03 in 9.0 mi SSE 8.1 mph - 0.01 in Rain Light Rain
1:05 PM 71.6 °F 69.8 °F 94% 30.06 in 7.0 mi SSE 6.9 mph - 0.00 in Rain Light Rain
1:27 PM 71.6 °F 69.8 °F 94% 30.05 in 7.0 mi SE 10.4 mph - 0.01 in Rain Light Rain
1:53 PM 72.0 °F 70.0 °F 93% 30.00 in 10.0 mi SE 9.2 mph - 0.01 in Rain Light Rain
2:51 PM 71.6 °F 69.8 °F 94% 30.05 in 10.0 mi Calm Calm - 0.01 in Rain Light Rain
2:53 PM 72.0 °F 69.1 °F 91% 30.01 in 10.0 mi ENE 4.6 mph - 0.01 in Rain Light Rain
2:59 PM 71.6 °F 69.8 °F 94% 30.05 in 10.0 mi ENE 4.6 mph - 0.00 in Rain Light Rain
3:18 PM 71.6 °F 69.8 °F 94% 30.04 in 5.0 mi ENE 5.8 mph - 0.01 in Rain Light Rain
3:53 PM 71.1 °F 69.1 °F 93% 30.01 in 4.0 mi ESE 4.6 mph - 0.05 in Rain Rain
4:18 PM 71.6 °F 69.8 °F 94% 30.03 in 5.0 mi East 3.5 mph - 0.03 in Rain Light Rain
4:53 PM 70.0 °F 70.0 °F 100% 30.00 in 3.0 mi ENE 5.8 mph - 0.12 in Rain Rain
5:23 PM 69.8 °F 69.8 °F 100% 30.03 in 7.0 mi East 4.6 mph - 0.05 in Rain Light Rain
5:53 PM 71.1 °F 70.0 °F 96% 30.00 in 10.0 mi ENE 4.6 mph - 0.05 in   Mostly Cloudy
6:01 PM 71.6 °F 69.8 °F 94% 30.03 in 10.0 mi ENE 4.6 mph - N/A   Overcast
6:53 PM 72.0 °F 69.1 °F 91% 29.99 in 10.0 mi Calm Calm - N/A   Overcast
7:53 PM 71.1 °F 70.0 °F 96% 29.99 in 10.0 mi Calm Calm - N/A   Overcast
8:00 PM 71.6 °F 69.8 °F 94% 30.02 in 10.0 mi NNE 3.5 mph - N/A   Overcast
8:53 PM 71.1 °F 69.1 °F 93% 29.99 in 10.0 mi Calm Calm - N/A   Overcast
9:07 PM 69.8 °F 66.2 °F 88% 30.02 in 10.0 mi ESE 4.6 mph - N/A   Mostly Cloudy
9:37 PM 69.8 °F 68.0 °F 94% 30.02 in 10.0 mi SE 4.6 mph - N/A   Mostly Cloudy
9:53 PM 70.0 °F 66.9 °F 90% 30.00 in 10.0 mi ESE 3.5 mph - N/A   Mostly Cloudy
10:30 PM 69.8 °F 66.2 °F 88% 30.05 in 10.0 mi Calm Calm - N/A   Overcast
10:53 PM 66.9 °F 66.0 °F 97% 30.01 in 10.0 mi South 3.5 mph - N/A   Scattered Clouds
11:53 PM 64.9 °F 64.9 °F 100% 30.02 in 10.0 mi Calm Calm - N/A   Clear